Home   Weather   Tokyo   Past weeks

Flag for Japan Past Weather in Tokyo, Japan — Yesterday and Last 2 Weeks

Now
31 °F

Chilly.


Feels Like: 25 °F
Forecast: 30 / 43 °F
Wind: 6 mph from Northwest

Location: Tokyo

Current Time: Jan 24, 2017 at 6:23:03 am

Latest Report: Jan 24, 2017 at 5:00 am


Visibility: N/A

Pressure: 30.06 "Hg

Humidity: 41%

Dew Point: 10 °F

Location of TokyoLocation

Past Weather in Tokyo — Graph

°F

Tokyo Temperature Yesterday

Maximum temperature yesterday: 44 °F (at 11:00 am)
Minimum temperature yesterday: 34 °F (at 10:00 pm)
Average temperature yesterday: 40 °F

High & Low Weather Summary for the Past Weeks

 TemperatureHumidityPressure
High54 °F (Jan 10, 1:00 pm)96% (Jan 9, 6:00 pm)30.42 "Hg (Jan 9, 6:00 pm)
Low29 °F (Jan 15, 4:00 am)23% (Jan 16, 2:00 pm)29.47 "Hg (Jan 9, 4:00 am)
Average41 °F53%29.87 "Hg
* Reported Jan 9 4:00 am — Jan 24 4:00 am, Tokyo, Weather by CustomWeather, © 2017

Note: Actual official high and low records may vary slightly from our data, if they occured in-between our weather recording intervals... More about our weather records

Advertising

Tokyo Weather History for the Previous 24 Hours

Scroll right to see more
 ConditionsComfort  
Time TempWeatherWind HumidityBarometerVisibility
4:00 am
Tue, Jan 24
31 °FChilly.6 mph41%30.05 "HgN/A
3:00 am32 °FClear.7 mph38%30.05 "Hg12 mi
2:00 am33 °FChilly.8 mph39%30.05 "HgN/A
1:00 am34 °FChilly.9 mph36%30.04 "HgN/A
12:00 am35 °FChilly.7 mph34%30.03 "HgN/A
11:00 pm
Mon, Jan 23
36 °FChilly.12 mph32%30.02 "HgN/A
10:00 pm34 °FChilly.5 mph37%30.02 "HgN/A
9:00 pm35 °FClear.8 mph36%30.00 "Hg12 mi
8:00 pm36 °FChilly.10 mph32%29.98 "HgN/A
7:00 pm38 °FChilly.9 mph27%29.96 "HgN/A
6:00 pm39 °FPassing clouds.10 mph27%29.93 "Hg16 mi
5:00 pm40 °FChilly.12 mph26%29.90 "HgN/A
4:00 pm41 °FQuite cool.14 mph24%29.88 "HgN/A
3:00 pm42 °FOvercast.12 mph28%29.86 "Hg19 mi
2:00 pm44 °FQuite cool.12 mph25%29.84 "HgN/A
1:00 pm44 °FQuite cool.9 mph26%29.84 "HgN/A
12:00 pm44 °FPartly sunny.10 mph26%29.85 "Hg19 mi
11:00 am44 °FQuite cool.10 mph26%29.88 "HgN/A
10:00 am42 °FQuite cool.13 mph32%29.90 "HgN/A
9:00 am39 °FPassing clouds.12 mph36%29.90 "Hg19 mi
8:00 am38 °FChilly.10 mph38%29.89 "HgN/A
7:00 am37 °FChilly.7 mph46%29.88 "HgN/A
6:00 am37 °FClear.10 mph50%29.85 "Hg12 mi
Weather by CustomWeather, © 2017

See weather overviewHow to use our weather pages